Powrót do katalogu

FENGYUN 1C DEB

AktywnySSO
NORAD 30564·DEBRIS·🇨🇳 China

Wystrzelony May 10, 1999 z Taiyuan Satellite Launch Center

Loading…

Następne Przeloty (najbliższe 24 godziny)

TLE

ŚwieżeSource: Space-Track

Epoka: Sep 14, 2026, 07:06 UTC

1 30564U 99025ALE 26257.29648400  .00000830  00000-0  43860-3 0  9993
2 30564  98.7914 266.3459 0202193  64.5010 310.6936 14.06399951  1675

Śledź FENGYUN 1C DEB w czasie rzeczywistym z AllMySat

Download on the App Store